PEGASUS DEB, 25445

Orbit data source: Space-Track

PEGASUS DEB, 25445 is space debris in LEO originally from a launch on Thu, 19 May 1994 UTC launched from the Air Force Western Test Range (AFWTR). Debris objects in space refer to the collection of defunct objects orbiting the Earth. Examples of debris include non-operational satellites, rocket bodies, and fragments generated from explosions, collisions, or faulty payload assembly.

Loading next visibility...
Identifier
25445, 1994-029ADZ
Orbit
LEO
Country
Flag of USUS
Related business
Manufacturer
Unknown
Mission
Spacecraft
Bus & Motor
Unknown
Mass
Unknown
Launch date (UTC)
1994-05-19 (32 years ago)
Launch vehicle
Unknown
Launch site
Air Force Western Test Range (AFWTR)
Object type
Payload
Rocket body
Debris
Shape & HBR
Unknown shape, 0.1 m
Radar Cross Section
Small (<0.1 m²)

Expand to show TLE details & history
Last TLE update: 4 days ago

TLE from 4 days ago
0 PEGASUS DEB
1 25445U 94029ADZ 26251.36335977  .00001171  00000-0  15821-3 0  9993
2 25445  81.9869  25.4130 0129235  32.1169 358.1544 14.72550571548725
Epoch: 2026-09-08T08:43Z
TLE epoch observation values (Epoch: 2026-09-08T08:43:14.284Z)
Latitude
29.9514°
Longitude
-88.20018°
Altitude
565.918 km
Speed
7.63 km/s
True Right ascension
02h 00m 09s
True Declination
29° 47' 56"
Sunlit
Object was in full shadow at epoch
Visualization orbit readout
Latitude
Unknown
Longitude
Unknown
Altitude
Unknown
Speed
Unknown
Apparent Right ascension
Unknown
Apparent Declination
Unknown
Sunlit
N/A
Visualization observer readout
Local Sidereal Time
09:33:40
Azimuth
Unknown
Elevation
Unknown
Doppler factor
Unknown
Orbital elements
Apogee altitude
740.821 km
Perigee altitude
559.165 km
Semi-major axis
7,028.13 km
Eccentricity
0.01292
Inclination
81.9869°
RAAN
25.413°
Arg. of periapsis
32.1169°
True anomaly
358.10592°
Mean anomaly
358.1544°
Eccentric anomaly
358.13024°
Mean motion
3.68369 °/min
Orbital period
97.73 mins
BSTAR
0.00015821
Loading maneuver chart data...
Computing Atmospheric mass density...

Documentation

Showing up to 5 results
|